EN

Hourly Weather Trubcheva

Today, 22 April, Thursday

Time Temperature Precipitation Wind Pressure Humidity
00:00 +3°C° 0 mm 4 mps 739 mmHg 94%
01:00 +1°C° 0 mm 4 mps 739 mmHg 94%
02:00 +3°C° 0 mm 4 mps 739 mmHg 93%
03:00 +3°C° 0 mm 4 mps 739 mmHg 92%
04:00 +3°C° 0 mm 4 mps 740 mmHg 92%
05:00 +3°C° 0 mm 4 mps 740 mmHg 91%
06:00 +4°C° 0 mm 4 mps 740 mmHg 88%
07:00 +5°C° 0 mm 4 mps 740 mmHg 84%
08:00 +6°C° 0 mm 5 mps 740 mmHg 81%
09:00 +8°C° 0 mm 5 mps 740 mmHg 74%
10:00 +10°C° 0 mm 5 mps 741 mmHg 67%
11:00 +13°C° 0 mm 6 mps 741 mmHg 60%
12:00 +13°C° 0.4 mm 5 mps 740 mmHg 59%
13:00 +13°C° 0.4 mm 5 mps 740 mmHg 57%
14:00 +14°C° 0 mm 5 mps 740 mmHg 54%
15:00 +14°C° 0.2 mm 5 mps 740 mmHg 57%
16:00 +13°C° 0.2 mm 5 mps 740 mmHg 60%
17:00 +13°C° 0.2 mm 5 mps 740 mmHg 64%
18:00 +10°C° 0.3 mm 5 mps 740 mmHg 70%
19:00 +10°C° 0.3 mm 4 mps 740 mmHg 77%
20:00 +8°C° 0.3 mm 4 mps 741 mmHg 84%
21:00 +8°C° 0.1 mm 4 mps 741 mmHg 84%
22:00 +7°C° 0.1 mm 4 mps 741 mmHg 84%
23:00 +7°C° 0.1 mm 4 mps 741 mmHg 84%

Tomorrow, 23 April, Friday

Time Temperature Precipitation Wind Pressure Humidity
00:00 +7°C° 0 mm 4 mps 740 mmHg 85%
01:00 +6°C° 0 mm 4 mps 740 mmHg 85%
02:00 +6°C° 0 mm 4 mps 740 mmHg 85%
03:00 +6°C° 0 mm 5 mps 740 mmHg 85%
04:00 +6°C° 0 mm 5 mps 740 mmHg 84%
05:00 +6°C° 0 mm 5 mps 740 mmHg 84%
06:00 +7°C° 0 mm 6 mps 740 mmHg 80%
07:00 +9°C° 0 mm 6 mps 740 mmHg 75%
08:00 +10°C° 0 mm 7 mps 740 mmHg 71%
09:00 +11°C° 0.1 mm 7 mps 739 mmHg 67%
10:00 +12°C° 0.1 mm 8 mps 739 mmHg 64%
11:00 +13°C° 0.1 mm 8 mps 739 mmHg 60%
12:00 +10°C° 0.6 mm 7 mps 739 mmHg 69%
13:00 +8°C° 0.6 mm 6 mps 739 mmHg 78%
14:00 +6°C° 0.6 mm 4 mps 739 mmHg 86%
15:00 +6°C° 0.7 mm 4 mps 739 mmHg 87%
16:00 +6°C° 0.7 mm 4 mps 739 mmHg 88%
17:00 +5°C° 0.7 mm 4 mps 738 mmHg 89%
18:00 +5°C° 1.2 mm 3 mps 738 mmHg 90%
19:00 +5°C° 1.2 mm 2 mps 738 mmHg 90%
20:00 +5°C° 1.2 mm 2 mps 738 mmHg 90%
21:00 +5°C° 0.9 mm 2 mps 738 mmHg 90%
22:00 +5°C° 0.9 mm 2 mps 738 mmHg 90%
23:00 +5°C° 0.9 mm 2 mps 737 mmHg 90%

Day after tomorrow, 24 April, Saturday

Time Temperature Precipitation Wind Pressure Humidity
00:00 +5°C° 0.2 mm 2 mps 737 mmHg 88%
01:00 +4°C° 0.2 mm 2 mps 737 mmHg 87%
02:00 +4°C° 0.2 mm 2 mps 737 mmHg 86%
03:00 +4°C° 0.1 mm 2 mps 737 mmHg 87%
04:00 +2°C° 0.1 mm 3 mps 737 mmHg 88%
05:00 +2°C° 0.1 mm 3 mps 736 mmHg 90%
06:00 +3°C° 0.1 mm 3 mps 736 mmHg 83%
07:00 +4°C° 0.1 mm 4 mps 736 mmHg 77%
08:00 +4°C° 0.1 mm 4 mps 736 mmHg 71%
09:00 +5°C° 0.3 mm 5 mps 736 mmHg 66%
10:00 +4°C° 0.3 mm 6 mps 736 mmHg 62%
11:00 +5°C° 0.3 mm 6 mps 736 mmHg 57%
12:00 +5°C° 0.3 mm 6 mps 736 mmHg 57%
13:00 +4°C° 0.3 mm 7 mps 736 mmHg 57%
14:00 +4°C° 0.3 mm 7 mps 736 mmHg 57%
15:00 +4°C° 0.3 mm 6 mps 736 mmHg 61%
16:00 +3°C° 0.3 mm 6 mps 736 mmHg 65%
17:00 +3°C° 0.3 mm 5 mps 736 mmHg 69%
18:00 +2°C° 0.3 mm 5 mps 737 mmHg 75%
19:00 +1°C° 0.3 mm 5 mps 737 mmHg 80%
20:00 +1°C° 0.3 mm 4 mps 737 mmHg 86%
21:00 0°C° 0 mm 5 mps 738 mmHg 85%
22:00 0°C° 0 mm 5 mps 738 mmHg 84%
23:00 -2°C° 0 mm 6 mps 738 mmHg 84%

25 April, Sunday

Time Temperature Precipitation Wind Pressure Humidity
00:00 -1°C° 0 mm 5 mps 738 mmHg 85%
01:00 -2°C° 0 mm 5 mps 739 mmHg 87%
02:00 -2°C° 0 mm 4 mps 739 mmHg 89%
03:00 -2°C° 0 mm 4 mps 739 mmHg 89%
04:00 -2°C° 0 mm 4 mps 739 mmHg 88%
05:00 -2°C° 0 mm 4 mps 739 mmHg 88%
06:00 -1°C° 0 mm 5 mps 739 mmHg 80%
07:00 -1°C° 0 mm 6 mps 739 mmHg 71%
08:00 +2°C° 0 mm 7 mps 739 mmHg 63%
09:00 +2°C° 0 mm 7 mps 739 mmHg 60%
10:00 +3°C° 0 mm 7 mps 739 mmHg 58%
11:00 +3°C° 0 mm 7 mps 739 mmHg 55%
12:00 +4°C° 0.2 mm 7 mps 739 mmHg 58%
13:00 +4°C° 0.2 mm 6 mps 739 mmHg 61%
14:00 +4°C° 0.2 mm 6 mps 739 mmHg 65%
15:00 +4°C° 0.2 mm 6 mps 739 mmHg 65%
16:00 +5°C° 0.2 mm 5 mps 739 mmHg 66%
17:00 +4°C° 0.2 mm 4 mps 738 mmHg 67%
18:00 +3°C° 0 mm 4 mps 739 mmHg 70%
19:00 +2°C° 0 mm 3 mps 739 mmHg 74%
20:00 +1°C° 0 mm 3 mps 739 mmHg 78%
21:00 +1°C° 0 mm 2 mps 739 mmHg 80%
22:00 -1°C° 0 mm 2 mps 739 mmHg 81%
23:00 -1°C° 0 mm 2 mps 740 mmHg 82%

26 April, Monday

Time Temperature Precipitation Wind Pressure Humidity
00:00 -1°C° 0 mm 2 mps 740 mmHg 83%
01:00 -2°C° 0 mm 2 mps 740 mmHg 84%
02:00 -2°C° 0 mm 2 mps 740 mmHg 85%
03:00 -2°C° 0 mm 2 mps 740 mmHg 85%
04:00 -2°C° 0 mm 2 mps 740 mmHg 84%
05:00 -2°C° 0 mm 2 mps 740 mmHg 84%
06:00 0°C° 0 mm 3 mps 740 mmHg 76%
07:00 +2°C° 0 mm 3 mps 740 mmHg 68%
08:00 +3°C° 0 mm 3 mps 740 mmHg 60%
09:00 +4°C° 0.3 mm 4 mps 739 mmHg 57%
10:00 +5°C° 0.3 mm 4 mps 739 mmHg 53%
11:00 +6°C° 0.3 mm 4 mps 739 mmHg 50%
12:00 +6°C° 0.4 mm 4 mps 739 mmHg 49%
13:00 +6°C° 0.4 mm 4 mps 738 mmHg 49%
14:00 +6°C° 0.4 mm 5 mps 738 mmHg 48%
15:00 +6°C° 0.4 mm 5 mps 738 mmHg 55%
16:00 +5°C° 0.4 mm 5 mps 738 mmHg 61%
17:00 +3°C° 0.4 mm 5 mps 737 mmHg 67%
18:00 +3°C° 0.1 mm 4 mps 738 mmHg 72%
19:00 +1°C° 0.1 mm 4 mps 738 mmHg 77%
20:00 +1°C° 0.1 mm 3 mps 738 mmHg 82%
21:00 0°C° 0 mm 3 mps 738 mmHg 83%
22:00 0°C° 0 mm 3 mps 738 mmHg 84%
23:00 -1°C° 0 mm 3 mps 738 mmHg 86%

27 April, Tuesday

Time Temperature Precipitation Wind Pressure Humidity
00:00 -1°C° 0 mm 3 mps 738 mmHg 86%
01:00 -2°C° 0 mm 3 mps 738 mmHg 86%
02:00 -2°C° 0 mm 3 mps 738 mmHg 87%
03:00 -2°C° 0 mm 3 mps 738 mmHg 86%
04:00 -2°C° 0 mm 3 mps 738 mmHg 86%
05:00 -2°C° 0 mm 3 mps 738 mmHg 86%
06:00 0°C° 0 mm 3 mps 738 mmHg 78%
07:00 +1°C° 0 mm 4 mps 739 mmHg 71%
08:00 +4°C° 0 mm 4 mps 739 mmHg 63%
09:00 +5°C° 0.2 mm 4 mps 739 mmHg 58%
10:00 +6°C° 0.2 mm 4 mps 739 mmHg 53%
11:00 +6°C° 0.2 mm 5 mps 739 mmHg 48%
12:00 +7°C° 0 mm 4 mps 738 mmHg 47%
13:00 +7°C° 0 mm 4 mps 738 mmHg 45%
14:00 +8°C° 0 mm 3 mps 738 mmHg 44%
15:00 +7°C° 0.1 mm 3 mps 738 mmHg 50%
16:00 +7°C° 0.1 mm 3 mps 738 mmHg 56%
17:00 +5°C° 0.1 mm 3 mps 738 mmHg 62%
18:00 +4°C° 0 mm 3 mps 738 mmHg 67%
19:00 +2°C° 0 mm 3 mps 739 mmHg 73%
20:00 +2°C° 0 mm 2 mps 739 mmHg 79%
21:00 +2°C° 0 mm 2 mps 739 mmHg 81%
22:00 +1°C° 0 mm 2 mps 739 mmHg 82%
23:00 +1°C° 0 mm 2 mps 740 mmHg 83%
Show more

We Need Your Consent

Meteoprog and our Service Providers may store and access personal data such as cookies, device identifiers or other similar technologies on your device and process such data to personalise content and ads, as well as provide social media features and to analyse the traffic.

  • Store and/or access information on your device

    Cookies, device identifiers or other information can be stored or accessed on your device for the purposes indicated above.

  • Personalised ads and content, ad and content measurement, audience insights, and products development

    Ads and content can be personalised based on a profile. More data can be added to better personalise ads and content. Ad and content performance can be measured. Insights about the audience who saw the ads and content can be derived. Such data can be used to develop or improve user’s experience, systems and software.

By clicking ‘I Agree’ you will allow the use of indicated cookies, device identifiers, web beacons or other similar technologies. Your settings can be changed in the browser on your device.

For certain purposes, legitimate interests may be relied on, rather than consent. You can read more about this in our Privacy and Cookie Policy.